| time (UTC) | temp C | wind direction | speed KPH | gust KPH | rain 1hr cm | rain 24hr cm | rain mn cm | humidity % | barometer mb |
| 20260507060609 | 9 | 97 | 0.0 | 3.2 | 0.00 | 0.00 | 0.00 | 37 | 1012.4 |
| 20260507055524 | 10 | 131 | 1.6 | 4.8 | 0.00 | 0.00 | 0.00 | 37 | 1012.3 |
| 20260507054032 | 8 | 88 | 3.2 | 6.4 | 0.00 | 0.00 | 0.00 | 37 | 1012.2 |
| 20260507052859 | 8 | 73 | 3.2 | 6.4 | 0.00 | 0.00 | 0.00 | 39 | 1012.2 |
| 20260507051359 | 8 | 97 | 1.6 | 4.8 | 0.00 | 0.00 | 0.00 | 40 | 1012.2 |
| 20260507045934 | 7 | 88 | 3.2 | 6.4 | 0.00 | 0.00 | 0.00 | 41 | 1012.2 |
| 20260507044529 | 6 | 71 | 3.2 | 9.7 | 0.00 | 0.00 | 0.00 | 42 | 1012.2 |
| 20260507043912 | 6 | 23 | 3.2 | 6.4 | 0.00 | 0.00 | 0.00 | 43 | 1012.1 |
| 20260507042806 | 6 | 359 | 1.6 | 4.8 | 0.00 | 0.00 | 0.00 | 45 | 1012.2 |
| 20260507042019 | 5 | 359 | 3.2 | 6.4 | 0.00 | 0.00 | 0.00 | 46 | 1012.2 |
| 20260507041359 | 5 | 16 | 3.2 | 6.4 | 0.00 | 0.00 | 0.00 | 48 | 1012.1 |
| 20260507040134 | 4 | 18 | 3.2 | 8.0 | 0.00 | 0.00 | 0.00 | 51 | 1012.1 |
| 20260507034719 | 3 | 339 | 3.2 | 6.4 | 0.00 | 0.00 | 0.00 | 53 | 1012.0 |
| 20260507033804 | 3 | 340 | 3.2 | 4.8 | 0.00 | 0.00 | 0.00 | 54 | 1012.0 |
| 20260507032649 | 3 | 321 | 3.2 | 4.8 | 0.00 | 0.00 | 0.00 | 54 | 1011.9 |
| 20260507031619 | 2 | 340 | 6.4 | 9.7 | 0.00 | 0.00 | 0.00 | 55 | 1011.8 |
| 20260507030219 | 2 | 333 | 4.8 | 8.0 | 0.00 | 0.00 | 0.00 | 55 | 1011.7 |
| 20260507025109 | 2 | 329 | 4.8 | 6.4 | 0.00 | 0.00 | 0.00 | 55 | 1011.6 |
| 20260507024206 | 2 | 344 | 4.8 | 8.0 | 0.00 | 0.00 | 0.00 | 55 | 1011.6 |
| 20260507023621 | 2 | 334 | 4.8 | 8.0 | 0.00 | 0.00 | 0.00 | 55 | 1011.6 |
| 20260507022851 | 2 | 334 | 3.2 | 6.4 | 0.00 | 0.00 | 0.00 | 55 | 1011.6 |
| 20260507021732 | 2 | 322 | 4.8 | 8.0 | 0.00 | 0.00 | 0.00 | 54 | 1011.7 |
| 20260507021104 | 2 | 322 | 3.2 | 4.8 | 0.00 | 0.00 | 0.00 | 55 | 1011.7 |
| 20260507020144 | 2 | 333 | 4.8 | 8.0 | 0.00 | 0.00 | 0.00 | 54 | 1011.7 |
| 20260507015136 | 2 | 309 | 3.2 | 4.8 | 0.00 | 0.00 | 0.00 | 54 | 1011.7 |
| 20260507013906 | 3 | 324 | 4.8 | 6.4 | 0.00 | 0.00 | 0.00 | 53 | 1011.6 |
| 20260507013229 | 3 | 319 | 3.2 | 6.4 | 0.00 | 0.00 | 0.00 | 53 | 1011.6 |
| 20260507012314 | 3 | 319 | 3.2 | 6.4 | 0.00 | 0.00 | 0.00 | 53 | 1011.6 |
| 20260507010834 | 3 | 314 | 3.2 | 4.8 | 0.00 | 0.00 | 0.00 | 52 | 1011.6 |
| 20260507005602 | 3 | 359 | 3.2 | 4.8 | 0.00 | 0.00 | 0.00 | 51 | 1011.6 |
| 20260507004434 | 3 | 321 | 3.2 | 6.4 | 0.00 | 0.00 | 0.00 | 50 | 1011.6 |
| 20260507003221 | 3 | 311 | 3.2 | 6.4 | 0.00 | 0.00 | 0.00 | 51 | 1011.5 |
| 20260507002351 | 3 | 309 | 3.2 | 6.4 | 0.00 | 0.00 | 0.00 | 50 | 1011.5 |
| 20260507001519 | 3 | 2 | 1.6 | 4.8 | 0.00 | 0.00 | 0.00 | 49 | 1011.4 |
| 20260507000322 | 4 | 323 | 4.8 | 8.0 | 0.00 | 0.00 | 0.00 | 49 | 1011.4 |
| 20260506234944 | 4 | 327 | 6.4 | 8.0 | 0.00 | 0.00 | 0.00 | 48 | 1011.4 |
| 20260506233909 | 4 | 325 | 1.6 | 8.0 | 0.00 | 0.00 | 0.00 | 48 | 1011.4 |
| 20260506232802 | 4 | 318 | 3.2 | 9.7 | 0.00 | 0.00 | 0.00 | 48 | 1011.3 |
| 20260506232239 | 4 | 333 | 4.8 | 8.0 | 0.00 | 0.00 | 0.00 | 48 | 1011.3 |
| 20260506231644 | 5 | 354 | 3.2 | 8.0 | 0.00 | 0.00 | 0.00 | 47 | 1011.3 |
| 20260506230719 | 5 | 336 | 4.8 | 8.0 | 0.00 | 0.00 | 0.00 | 47 | 1011.4 |
| 20260506225536 | 5 | 341 | 6.4 | 9.7 | 0.00 | 0.00 | 0.00 | 47 | 1011.3 |
| 20260506224409 | 5 | 324 | 4.8 | 8.0 | 0.00 | 0.00 | 0.00 | 50 | 1011.3 |
| 20260506223236 | 5 | 340 | 4.8 | 9.7 | 0.00 | 0.00 | 0.00 | 52 | 1011.3 |
| 20260506222334 | 5 | 332 | 4.8 | 11.3 | 0.00 | 0.00 | 0.00 | 54 | 1011.2 |
| 20260506221732 | 5 | 324 | 4.8 | 8.0 | 0.00 | 0.00 | 0.00 | 59 | 1011.2 |
| 20260506220249 | 5 | 321 | 3.2 | 6.4 | 0.00 | 0.00 | 0.00 | 66 | 1011.2 |
| 20260506215312 | 5 | 321 | 4.8 | 6.4 | 0.00 | 0.00 | 0.00 | 69 | 1011.1 |
| 20260506214336 | 5 | 326 | 3.2 | 4.8 | 0.00 | 0.00 | 0.00 | 73 | 1011.0 |
| 20260506213719 | 5 | 315 | 3.2 | 4.8 | 0.00 | 0.00 | 0.00 | 77 | 1011.0 |
| 20260506212622 | 5 | 326 | 3.2 | 3.2 | 0.00 | 0.00 | 0.00 | 77 | 1010.9 |
| 20260506211349 | 5 | 322 | 1.6 | 3.2 | 0.00 | 0.00 | 0.00 | 77 | 1010.9 |
| 20260506210349 | 5 | 309 | 3.2 | 4.8 | 0.00 | 0.00 | 0.00 | 79 | 1010.9 |
| 20260506205836 | 5 | 310 | 3.2 | 4.8 | 0.00 | 0.00 | 0.00 | 79 | 1010.8 |
| 20260506204921 | 5 | 317 | 1.6 | 3.2 | 0.00 | 0.00 | 0.00 | 78 | 1010.8 |
| 20260506204042 | 5 | 328 | 1.6 | 3.2 | 0.00 | 0.00 | 0.00 | 77 | 1010.8 |
| 20260506203519 | 5 | 324 | 1.6 | 1.6 | 0.00 | 0.00 | 0.00 | 75 | 1010.8 |
| 20260506202259 | 5 | 213 | 0.0 | 1.6 | 0.00 | 0.00 | 0.00 | 73 | 1010.8 |
| 20260506200834 | 6 | 201 | 3.2 | 3.2 | 0.00 | 0.00 | 0.00 | 76 | 1010.8 |
| 20260506195549 | 6 | 158 | 0.0 | 1.6 | 0.00 | 0.00 | 0.00 | 74 | 1010.8 |
| 20260506194412 | 6 | 178 | 1.6 | 3.2 | 0.00 | 0.00 | 0.00 | 68 | 1010.8 |
| 20260506193019 | 6 | 230 | 1.6 | 1.6 | 0.00 | 0.00 | 0.00 | 66 | 1010.6 |
| 20260506192019 | 6 | 192 | 1.6 | 3.2 | 0.00 | 0.00 | 0.00 | 65 | 1010.6 |
| 20260506190724 | 6 | 209 | 1.6 | 3.2 | 0.00 | 0.00 | 0.00 | 67 | 1010.6 |
| 20260506190119 | 7 | 193 | 1.6 | 3.2 | 0.00 | 0.00 | 0.00 | 63 | 1010.6 |
| 20260506185124 | 7 | 153 | 1.6 | 3.2 | 0.00 | 0.00 | 0.00 | 63 | 1010.6 |
| 20260506183719 | 7 | 208 | 0.0 | 1.6 | 0.00 | 0.00 | 0.00 | 64 | 1010.6 |
| 20260506182959 | 7 | 190 | 3.2 | 6.4 | 0.00 | 0.00 | 0.00 | 64 | 1010.6 |
| 20260506182202 | 7 | 167 | 3.2 | 6.4 | 0.00 | 0.00 | 0.00 | 62 | 1010.6 |
| 20260506180906 | 7 | 202 | 1.6 | 4.8 | 0.00 | 0.00 | 0.00 | 59 | 1010.5 |
| 20260506175714 | 7 | 195 | 6.4 | 11.3 | 0.00 | 0.00 | 0.00 | 61 | 1010.5 |
| 20260506175152 | 8 | 157 | 3.2 | 6.4 | 0.00 | 0.00 | 0.00 | 58 | 1010.5 |
| 20260506174152 | 8 | 215 | 3.2 | 9.7 | 0.00 | 0.00 | 0.00 | 47 | 1010.5 |
| 20260506173119 | 8 | 189 | 3.2 | 8.0 | 0.00 | 0.00 | 0.00 | 47 | 1010.5 |
| 20260506172119 | 9 | 195 | 6.4 | 11.3 | 0.00 | 0.00 | 0.00 | 46 | 1010.5 |
| 20260506170709 | 9 | 218 | 6.4 | 12.9 | 0.00 | 0.00 | 0.00 | 45 | 1010.5 |
| 20260506165619 | 9 | 232 | 4.8 | 9.7 | 0.00 | 0.00 | 0.00 | 46 | 1010.4 |
| 20260506164629 | 9 | 215 | 8.0 | 12.9 | 0.00 | 0.00 | 0.00 | 45 | 1010.4 |
| 20260506163929 | 9 | 197 | 8.0 | 17.7 | 0.00 | 0.00 | 0.00 | 47 | 1010.4 |
| 20260506162522 | 9 | 202 | 4.8 | 11.3 | 0.00 | 0.00 | 0.00 | 48 | 1010.3 |
| 20260506161449 | 9 | 232 | 4.8 | 9.7 | 0.00 | 0.00 | 0.00 | 48 | 1010.4 |
| 20260506160904 | 9 | 209 | 6.4 | 14.5 | 0.00 | 0.00 | 0.00 | 47 | 1010.4 |
| 20260506160232 | 9 | 205 | 14.5 | 19.3 | 0.00 | 0.00 | 0.00 | 45 | 1010.3 |
| 20260506155442 | 10 | 198 | 6.4 | 14.5 | 0.00 | 0.00 | 0.00 | 44 | 1010.3 |
| 20260506154744 | 10 | 228 | 8.0 | 14.5 | 0.00 | 0.00 | 0.00 | 43 | 1010.4 |
| 20260506154154 | 10 | 237 | 6.4 | 17.7 | 0.00 | 0.00 | 0.00 | 42 | 1010.4 |
| 20260506153534 | 10 | 212 | 8.0 | 16.1 | 0.00 | 0.00 | 0.00 | 43 | 1010.4 |
| 20260506152139 | 8 | 190 | 9.7 | 19.3 | 0.00 | 0.00 | 0.00 | 49 | 1010.3 |
| 20260506151306 | 8 | 212 | 9.7 | 14.5 | 0.00 | 0.00 | 0.00 | 50 | 1010.4 |
| 20260506150602 | 8 | 198 | 9.7 | 19.3 | 0.00 | 0.00 | 0.00 | 50 | 1010.3 |
| 20260506145305 | 8 | 206 | 11.3 | 19.3 | 0.00 | 0.00 | 0.00 | 49 | 1010.6 |
| 20260506144519 | 8 | 200 | 12.9 | 22.5 | 0.00 | 0.00 | 0.00 | 49 | 1010.6 |
| 20260506143119 | 9 | 214 | 11.3 | 17.7 | 0.00 | 0.00 | 0.00 | 46 | 1010.6 |
| 20260506142239 | 9 | 213 | 9.7 | 14.5 | 0.00 | 0.00 | 0.00 | 44 | 1010.6 |
| 20260506140759 | 10 | 206 | 11.3 | 24.1 | 0.00 | 0.00 | 0.00 | 43 | 1010.4 |
| 20260506135804 | 10 | 203 | 11.3 | 19.3 | 0.00 | 0.00 | 0.00 | 39 | 1010.5 |
| 20260506134944 | 10 | 240 | 8.0 | 17.7 | 0.00 | 0.00 | 0.00 | 39 | 1010.5 |
| 20260506134219 | 10 | 213 | 11.3 | 24.1 | 0.00 | 0.00 | 0.00 | 40 | 1010.5 |
| 20260506133329 | 10 | 231 | 9.7 | 19.3 | 0.00 | 0.00 | 0.00 | 41 | 1010.6 |
| 20260506132734 | 10 | 198 | 11.3 | 24.1 | 0.00 | 0.00 | 0.00 | 42 | 1010.5 |
| 20260506132221 | 10 | 198 | 11.3 | 20.9 | 0.00 | 0.00 | 0.00 | 41 | 1010.4 |
| 20260506131019 | 10 | 203 | 14.5 | 30.6 | 0.00 | 0.00 | 0.00 | 40 | 1010.3 |
| 20260506125802 | 10 | 207 | 11.3 | 22.5 | 0.00 | 0.00 | 0.00 | 41 | 1010.3 |
| 20260506124654 | 9 | 197 | 16.1 | 29.0 | 0.00 | 0.00 | 0.00 | 45 | 1010.4 |
| 20260506123619 | 9 | 193 | 12.9 | 29.0 | 0.00 | 0.00 | 0.00 | 47 | 1010.4 |
| 20260506123042 | 10 | 190 | 9.7 | 27.4 | 0.00 | 0.00 | 0.00 | 47 | 1010.3 |
| 20260506121642 | 9 | 196 | 14.5 | 27.4 | 0.00 | 0.00 | 0.00 | 49 | 1010.4 |
| 20260506120659 | 8 | 198 | 9.7 | 20.9 | 0.00 | 0.00 | 0.00 | 54 | 1010.3 |
| 20260506115232 | 7 | 212 | 11.3 | 22.5 | 0.00 | 0.00 | 0.00 | 59 | 1010.2 |
| 20260506114412 | 7 | 210 | 12.9 | 25.7 | 0.00 | 0.00 | 0.00 | 59 | 1010.4 |
| 20260506113539 | 7 | 215 | 11.3 | 25.7 | 0.00 | 0.00 | 0.00 | 59 | 1010.3 |
| 20260506112542 | 7 | 195 | 9.7 | 17.7 | 0.00 | 0.00 | 0.00 | 60 | 1010.3 |
| 20260506111536 | 7 | 198 | 11.3 | 24.1 | 0.00 | 0.00 | 0.00 | 59 | 1010.2 |
| 20260506110409 | 8 | 193 | 8.0 | 20.9 | 0.00 | 0.00 | 0.00 | 57 | 1010.3 |
| 20260506104951 | 8 | 200 | 11.3 | 20.9 | 0.00 | 0.00 | 0.00 | 53 | 1010.3 |
| 20260506103959 | 8 | 192 | 9.7 | 24.1 | 0.00 | 0.00 | 0.00 | 55 | 1010.2 |
| 20260506103349 | 8 | 199 | 6.4 | 17.7 | 0.00 | 0.00 | 0.00 | 55 | 1010.1 |
| 20260506102644 | 9 | 191 | 4.8 | 12.9 | 0.00 | 0.00 | 0.00 | 52 | 1010.2 |
| 20260506101219 | 9 | 123 | 3.2 | 6.4 | 0.00 | 0.00 | 0.00 | 47 | 1010.3 |
| 20260506100429 | 10 | 288 | 4.8 | 9.7 | 0.00 | 0.00 | 0.00 | 31 | 1010.2 |
| 20260506095036 | 9 | 332 | 8.0 | 16.1 | 0.00 | 0.00 | 0.00 | 34 | 1010.0 |
| 20260506094532 | 9 | 342 | 12.9 | 20.9 | 0.00 | 0.00 | 0.00 | 34 | 1010.0 |
| 20260506093342 | 10 | 327 | 9.7 | 16.1 | 0.00 | 0.00 | 0.00 | 33 | 1010.0 |
| 20260506092349 | 9 | 301 | 4.8 | 9.7 | 0.00 | 0.00 | 0.00 | 35 | 1009.9 |
| 20260506091124 | 9 | 318 | 11.3 | 19.3 | 0.00 | 0.00 | 0.00 | 35 | 1009.7 |
| 20260506085636 | 8 | 316 | 12.9 | 25.7 | 0.00 | 0.00 | 0.00 | 35 | 1009.7 |
| 20260506084206 | 9 | 324 | 4.8 | 12.9 | 0.00 | 0.00 | 0.00 | 35 | 1009.7 |
| 20260506083236 | 8 | 304 | 6.4 | 14.5 | 0.00 | 0.00 | 0.00 | 37 | 1009.7 |
| 20260506081749 | 8 | 328 | 9.7 | 16.1 | 0.00 | 0.00 | 0.00 | 39 | 1009.6 |
| 20260506080449 | 8 | 351 | 9.7 | 19.3 | 0.00 | 0.00 | 0.00 | 39 | 1009.6 |
| 20260506073224 | 8 | 265 | 6.4 | 12.9 | 0.00 | 0.00 | 0.00 | 42 | 1009.4 |
| 20260506072312 | 8 | 315 | 9.7 | 16.1 | 0.00 | 0.00 | 0.00 | 43 | 1009.3 |
| 20260506070954 | 7 | 313 | 8.0 | 16.1 | 0.00 | 0.00 | 0.00 | 46 | 1009.2 |
| 20260506061919 | 7 | 291 | 4.8 | 8.0 | 0.00 | 0.00 | 0.00 | 54 | 1009.0 |